CAPE
122 0 0 0 22 60 114 100 213 227 211 404 297 370 409 327 284 198 301 284 22 1301 1586 1563 2130 1866 1739 1810 2009 2144 2584 2915 3004 2952 2855 2727 2608 2597 2549 2617 2802 2840 2521 2279 1895 1659 1509 1651 1467
0 0 0 0 0 1 0 21 122 84 57 145 197 352 428 443 611 620 514 169 334 1480 1692 1216 2201 2067 1694 1743 1810 2060 2223 2486 2814 2941 2893 2814 2734 2738 2743 2771 2802 2545 2346 2014 1649 1534 1429 1515 1587
0 0 0 0 0 0 0 0 0 0 29 51 39 64 81 525 645 557 559 672 667 1633 1789 1506 2399 2165 1797 1537 1640 1826 2007 2113 2069 2311 2712 2870 2808 2753 2742 2808 2808 2295 1963 1688 1496 1685 1885 1887 1905
0 0 0 0 0 0 0 0 0 0 60 27 56 81 78 71 467 695 1146 1017 900 1448 1816 2124 2529 2357 2093 1570 1679 1945 1873 1999 2030 1940 2146 2429 2574 2836 2817 2812 2780 2554 2070 1676 1864 2058 2029 1810 1752
0 0 0 0 0 0 0 0 0 1 137 249 144 126 78 314 1198 1594 1616 1429 977 1382 1782 1983 2645 2610 2290 1668 1765 1948 2204 2390 2364 2163 1912 2020 2320 2356 2329 2490 2359 2329 2601 2470 2307 2292 2312 2141 1953
0 0 0 0 0 0 0 0 0 21 260 335 210 66 275 891 1581 1775 1739 1716 1479 1517 1834 2093 2517 2837 2584 2280 2320 2510 2532 2543 2580 2553 2485 2525 2544 2343 2163 2233 2231 2366 2457 2370 2286 2250 2270 2239 2128
0 0 0 0 0 0 0 0 0 142 356 379 43 55 175 1050 1713 1663 1616 1726 1596 1558 1899 2036 2115 2222 2713 2535 2434 2752 2751 2657 2665 2637 2601 2657 2657 2603 2407 2447 2373 2393 2429 2367 2259 2174 2158 2128 2065
0 0 0 0 0 0 0 0 0 113 275 160 53 111 441 910 1404 1511 1602 1502 1370 1465 1691 2008 2095 2059 1820 1469 2392 2575 2807 2868 2866 2748 2659 2724 2578 2382 2271 2392 2234 2202 2208 2132 2241 2226 2193 2193 2081
0 0 0 0 0 0 0 0 0 0 17 264 304 495 658 1262 1430 1310 1155 1135 1282 1421 1620 1618 1756 1897 2055 1912 1902 2369 2016 2273 2467 2346 2470 2343 1420 1402 1454 1607 1853 1936 2060 2160 2295 2289 2193 2153 2075
0 0 0 0 0 0 0 418 355 30 0 315 548 877 957 1175 1419 1371 1178 957 961 1227 1395 1448 1633 1719 1781 1828 1918 2057 1936 1545 1333 1289 1565 1770 1577 1665 1336 1469 1949 2017 1822 2397 2517 2495 2354 1875 595
0 0 0 0 0 0 0 449 338 609 500 755 651 850 1056 1187 1510 1564 1553 1445 1285 947 1061 1273 1489 1593 1558 1549 1574 2075 2122 2141 2196 2169 2017 1747 1971 1857 1622 1351 1332 1353 1747 1481 1392 1534 1611 999 848
0 0 0 0 0 1 9 440 286 438 739 764 756 1108 1267 1435 1500 1192 330 745 1016 963 1145 1290 1185 1559 1642 1566 1284 1498 1929 1499 1440 1476 1583 1781 1506 1376 1188 1238 1068 998 934 953 1115 1071 1000 1101 1242
0 0 0 0 178 282 240 292 477 580 1107 1474 1429 1315 1335 1721 2007 2083 2268 2045 1933 1591 1562 1255 1235 1392 1651 1625 1446 1303 1286 950 849 874 879 876 960 828 757 724 720 618 569 601 623 666 757 794 993
0 0 0 0 158 241 251 374 575 1422 2044 2311 2414 2475 2388 2189 1803 1521 1555 1407 1349 1257 866 655 1151 1264 1377 1572 1258 914 915 801 651 597 509 587 664 722 535 469 456 502 472 414 389 404 498 645 792
0 0 20 0 0 364 15 623 817 1121 2195 2297 2354 2273 2073 1935 1650 1384 1257 1176 951 991 1277 1340 982 941 1122 1170 683 732 912 936 881 657 647 346 128 181 224 339 393 371 469 644 773 872 926 1106 1134
0 0 0 0 3 114 544 674 733 1372 2065 1894 2125 1896 1614 1450 1186 893 716 703 808 444 574 759 903 1235 460 588 574 857 855 312 493 120 52 50 39 4 50 109 113 189 312 237 374 669 1120 1161 1373
0 0 0 42 9 97 684 733 699 1488 1633 1508 1714 1823 1629 1041 501 272 142 284 308 595 794 556 909 1053 1566 810 590 718 588 285 129 24 64 56 40 1 11 76 121 78 55 72 160 299 810 757 978
0 0 9 57 48 500 638 669 1202 1402 913 794 895 1045 642 66 7 1 8 85 186 408 711 713 595 796 1178 982 739 482 522 400 391 373 350 286 129 8 3 15 87 62 75 38 84 165 172 591 702
0 12 25 10 4 221 372 1018 853 944 741 265 115 61 0 0 0 0 0 0 6 28 70 165 147 735 616 567 823 1020 859 1071 922 887 343 235 345 133 48 32 9 55 14 10 46 60 120 169 471
2 13 0 1 29 199 339 475 624 817 980 724 177 11 0 0 0 0 0 0 0 0 0 0 12 152 166 69 743 1150 1274 1164 1213 952 922 670 192 92 55 86 44 13 10 21 32 41 248 155 287
0 0 0 14 12 89 244 459 703 699 803 746 684 249 20 0 0 0 0 0 0 0 0 0 0 20 31 94 64 107 74 24 6 39 129 513 633 707 722 457 361 179 67 5 35 156 131 117 428
0 0 0 28 126 217 0 321 651 688 927 950 724 332 128 40 0 0 0 0 0 0 0 0 0 0 0 2 0 30 0 0 0 2 0 23 381 363 329 379 350 165 334 155 98 285 400 498 259
0 0 0 0 0 30 2 133 428 687 1049 746 805 430 179 36 0 0 0 0 0 0 0 0 0 0 0 1 0 0 43 31 0 0 27 111 140 553 380 203 107 17 34 19 39 39 202 505 329
0 0 0 0 0 67 13 70 361 573 559 772 410 415 130 49 0 0 0 0 0 0 0 0 4 0 0 16 49 75 97 90 72 17 0 2 41 145 406 201 123 25 35 24 24 43 95 173 270
0 0 0 0 0 33 0 222 421 225 246 471 438 401 107 38 0 0 0 0 0 0 0 0 0 0 8 35 48 47 51 60 50 42 0 0 0 149 281 307 251 104 40 10 19 10 12 79 276
0 0 0 0 0 4 10 235 256 35 3 1 537 166 24 0 0 0 0 0 0 0 0 0 0 0 0 15 19 22 19 0 0 0 0 0 0 1 184 345 415 228 90 4 4 8 6 8 16
0 0 0 0 0 0 0 38 3 0 0 115 112 25 0 0 0 0 0 0 0 0 0 0 0 1 1 0 0 0 0 3 8 17 20 17 29 25 23 147 361 389 355 54 7 5 5 8 7
0 0 0 0 0 0 0 16 81 0 0 0 0 0 0 0 0 0 0 0 0 0 0 17 48 61 46 31 12 0 1 8 10 22 30 17 12 7 6 4 19 0 1 23 162 41 4 5 4
0 0 0 0 0 0 0 3 0 0 0 0 0 0 0 0 0 0 0 0 0 0 0 42 65 74 59 50 28 8 10 12 18 6 10 10 7 9 8 7 5 4 3 4 7 6 4 6 4
0 0 0 0 0 0 0 0 0 0 0 0 0 0 0 0 0 0 0 0 0 0 22 63 79 55 42 29 22 11 4 7 8 8 6 7 8 7 8 8 7 12 10 7 4 5 2 1 5
CIN
-423 0 0 0 -120 -141 -37 -24 -104 -62 -54 -75 -92 -62 -51 -65 -46 -29 -341 -354 -127 -138 -100 -77 -25 -46 -65 -55 -45 -48 -27 -18 -19 -32 -41 -50 -53 -41 -22 -8 -1 0 -7 -18 -37 -48 -58 -55 -68
0 0 0 0 0 -38 0 -116 -64 -46 -107 -111 -109 -86 -68 -42 -145 -174 -234 -411 -313 -115 -78 -103 -21 -32 -68 -68 -58 -45 -38 -31 -22 -27 -33 -37 -36 -19 -8 -1 0 -7 -10 -23 -42 -50 -62 -63 -67
0 0 0 0 0 0 0 0 0 0 -146 -82 -85 -188 -137 -83 -213 -226 -350 -334 -277 -94 -63 -78 -11 -22 -54 -85 -84 -67 -51 -45 -57 -48 -31 -26 -22 -12 -4 0 0 -9 -22 -36 -50 -52 -52 -59 -52
0 0 0 0 0 0 0 0 0 0 -138 -130 -124 -72 -246 -358 -273 -288 -338 -294 -216 -120 -73 -47 -9 -17 -38 -82 -90 -67 -69 -60 -62 -66 -51 -32 -18 -2 0 0 0 -4 -21 -38 -34 -33 -38 -44 -43
0 0 0 0 0 0 0 0 0 -7 -98 -59 -123 -76 -134 -340 -396 -341 -293 -235 -181 -118 -61 -36 -6 -11 -34 -85 -84 -79 -56 -40 -35 -44 -60 -46 -15 -6 -10 -4 -14 -13 -2 -7 -14 -21 -22 -32 -30
0 0 0 0 0 0 0 0 0 -59 -100 -130 -97 -129 -127 -402 -298 -310 -290 -241 -179 -117 -57 -16 -3 -3 -22 -42 -50 -37 -36 -34 -23 -22 -16 -11 -5 -11 -25 -16 -17 -8 -2 -3 -7 -10 -13 -16 -17
0 0 0 0 0 0 0 0 0 -78 -68 -64 -186 -74 -197 -255 -355 -364 -352 -323 -256 -174 -83 -33 -9 -4 0 -27 -38 -29 -30 -29 -22 -20 -15 -13 -6 -3 -8 -3 -2 -1 0 0 -3 -6 -7 -7 -9
0 0 0 0 0 0 0 0 0 -111 -54 -234 -213 -81 -70 -354 -443 -396 -361 -337 -312 -233 -132 -75 -38 -16 -13 -24 -9 -17 -14 -22 -19 -13 -10 -5 -7 -10 -11 -3 -9 -12 -15 -16 -15 -15 -12 -6 -9
0 0 0 0 0 0 0 0 0 0 -137 -116 -212 -289 -383 -462 -421 -356 -352 -363 -327 -274 -194 -131 -101 -74 -38 -30 -22 -3 -24 -27 -17 -24 -15 -11 -54 -53 -56 -47 -36 -36 -21 -16 -7 -1 -1 0 -1
0 0 0 0 0 0 0 -177 -230 -78 -25 -82 -202 -402 -466 -433 -358 -246 -240 -234 -254 -251 -251 -212 -152 -117 -81 -60 -36 -20 -21 -40 -70 -77 -55 -30 -34 -27 -44 -22 -5 -1 -5 0 0 0 0 0 -67
0 0 0 0 0 0 0 -232 -319 -206 -105 -255 -325 -356 -408 -375 -298 -133 -172 -173 -160 -195 -201 -194 -198 -168 -139 -107 -86 -15 0 0 0 0 0 0 0 0 0 0 -4 -5 -1 -11 -8 -10 -10 -30 -29
0 0 0 0 0 -36 -34 -263 -297 -340 -355 -375 -379 -375 -330 -254 -184 -209 -429 -350 -276 -232 -199 -198 -214 -167 -167 -158 -117 -67 -18 -21 -10 -6 -5 -1 -1 -2 -3 0 -5 -9 -9 -10 -8 -13 -27 -28 -25
0 0 0 0 -251 -247 -273 -282 -288 -330 -304 -311 -345 -337 -323 -256 -162 -110 -107 -115 -150 -200 -225 -234 -221 -204 -151 -91 -102 -99 -85 -83 -82 -49 -39 -36 -17 -26 -36 -28 -22 -22 -10 -9 -19 -25 -30 -35 -36
0 0 0 0 -251 -238 -232 -305 -294 -190 -114 -121 -157 -143 -134 -146 -205 -251 -233 -226 -235 -256 -381 -416 -310 -239 -145 -93 -141 -245 -287 -188 -147 -118 -108 -82 -59 -50 -74 -86 -79 -64 -89 -80 -22 -22 -37 -38 -29
0 0 -218 0 0 -170 -185 -199 -250 -221 -69 -108 -137 -137 -156 -161 -216 -220 -208 -226 -257 -279 -243 -258 -254 -225 -200 -142 -257 -233 -219 -263 -270 -193 -114 -176 -301 -258 -230 -227 -231 -217 -118 -59 -36 -14 0 -1 -16
0 0 0 -35 -50 -257 -133 -170 -227 -153 -69 -131 -120 -157 -192 -175 -210 -269 -276 -257 -251 -344 -354 -233 -247 -68 -234 -253 -272 -184 -149 -109 -125 -222 -215 -336 -443 -452 -443 -321 -412 -395 -235 -189 -95 -20 0 -6 -10
0 0 0 -139 -291 -212 -105 -172 -214 -122 -108 -170 -119 -98 -119 -207 -318 -441 -403 -312 -288 -275 -248 -234 -169 -145 -74 -154 -156 -85 -120 -203 -212 -262 -210 -251 -300 -67 -225 -333 -222 -291 -299 -246 -85 -52 -1 0 -2
0 0 -130 -129 -281 -183 -192 -225 -141 -131 -171 -213 -191 -129 -171 -365 -431 -154 -545 -366 -261 -207 -170 -126 -92 -58 -21 -30 -13 -14 -12 -27 -18 -18 -32 -86 -179 -50 0 -371 -210 -304 -275 -290 -73 -76 -11 -1 -4
0 -117 -146 -232 -318 -243 -235 -150 -177 -147 -171 -262 -316 -325 -2 0 0 0 0 0 -375 -290 -266 -198 -197 -54 -48 -27 -6 -4 -12 -2 -1 -3 -45 -72 -66 -101 -140 -1 0 -215 -248 -1 -108 -46 -59 -24 -10
-68 -90 0 -17 -280 -178 -184 -186 -169 -143 -107 -140 -247 -238 0 0 0 0 0 0 0 0 0 0 -95 -102 -74 -81 -6 0 0 0 0 0 0 -5 -57 -109 -131 -85 -63 -12 0 -57 -68 -34 -29 -3 -5
0 0 0 -56 -242 -237 -135 -100 -107 -137 -120 -127 -112 -150 -221 0 0 0 0 0 0 0 0 0 0 -101 -87 -64 -35 -73 -15 -12 -30 -21 -46 0 0 0 0 0 -6 -5 -28 0 -58 -29 -39 -23 -12
0 0 0 -126 -69 -23 0 -5 -91 -96 -81 -77 -89 -112 -169 -224 0 0 0 0 0 0 0 0 0 0 0 -7 0 -14 0 0 0 0 0 -10 0 0 0 -5 -11 -46 -7 -17 -15 -4 -1 -2 -20
0 0 0 0 0 -128 -88 -29 -111 -136 -30 -68 -48 -73 -132 -227 0 0 0 0 0 0 0 0 0 0 0 -3 0 -1 -19 -9 0 0 -8 -12 -10 0 -2 0 -5 0 -3 -27 -63 -64 -21 -3 -9
0 0 0 0 0 -37 -186 -102 -63 -89 -118 -68 -99 -95 -169 -225 0 0 0 0 0 0 0 0 -133 0 0 -46 -40 -39 -30 -23 -11 -6 0 -1 -7 -5 0 0 -1 -5 -28 0 0 -92 -57 -51 -22
0 0 0 0 0 -40 0 -61 -72 -168 -158 -102 -90 -110 -176 -203 0 0 0 0 0 0 0 0 0 0 -48 -52 -51 -55 -50 -35 -21 -24 0 0 0 0 -2 -1 -11 -2 -21 0 -1 -2 -47 -30 -4
0 0 0 0 0 -16 -81 -29 -56 -187 -26 -18 -71 -128 -171 0 0 0 0 0 0 0 0 0 0 0 0 -67 -68 -69 -63 0 0 0 0 0 0 0 0 0 0 0 -1 0 0 0 0 -141 -102
0 0 0 0 0 0 0 -140 -18 0 0 -107 -107 -144 0 0 0 0 0 0 0 0 0 0 0 -9 -12 0 0 0 0 0 0 0 0 0 0 0 0 -5 0 0 0 -7 -33 -34 0 0 0
0 0 0 0 0 0 0 -84 -25 0 0 0 -6 0 0 0 0 0 0 0 0 0 0 -77 -73 -66 -79 -103 -97 0 0 0 0 -1 0 0 0 0 0 -4 -23 0 0 -3 -1 -25 -25 -8 0
0 0 0 0 0 0 0 -12 0 0 0 0 0 0 0 0 0 0 0 0 0 0 0 -72 -60 -53 -67 -83 -74 -76 0 0 0 0 0 0 0 0 0 0 0 0 0 0 0 0 0 0 0
0 0 0 0 0 0 0 0 0 0 0 0 0 0 0 0 0 0 0 0 0 0 -59 -45 -35 -62 -61 -57 -51 -1 0 0 0 0 0 0 0 0 0 0 0 0 0 0 0 0 0 0 0
Wind_Speed
12 6 2 2 4 2 2 2 3 5 1 1 3 2 1 1 3 6 4 10 9 19 18 19 18 17 16 14 13 14 12 13 14 16 16 17 16 16 14 13 13 12 13 12 12 10 10 10 11
7 3 1 1 3 4 2 2 7 7 2 1 3 1 3 1 1 2 1 9 12 17 16 17 17 16 16 15 13 12 12 12 12 13 14 15 15 14 13 12 12 11 11 11 10 10 10 9 10
4 0 2 1 1 4 5 4 10 13 6 6 1 1 2 2 2 1 3 11 15 17 15 14 17 16 16 15 14 12 11 11 12 13 13 13 13 13 12 11 10 10 10 10 11 11 10 11 10
2 3 3 3 5 3 4 11 10 6 1 5 2 1 1 3 1 2 10 11 15 16 15 17 16 16 15 16 15 13 12 11 11 12 12 11 11 10 10 10 10 10 11 12 10 10 9 8 7
1 0 1 3 4 5 6 9 9 2 1 5 2 1 1 2 3 7 9 7 9 12 11 15 14 15 16 17 17 15 13 11 9 10 11 11 10 10 10 11 12 12 11 11 11 10 9 9 8
2 1 2 2 5 5 6 8 4 2 1 2 1 1 1 3 6 9 9 8 7 8 7 10 11 12 14 15 15 15 14 13 13 12 11 11 11 12 12 11 11 11 10 10 10 9 8 8 7
1 2 1 2 6 6 9 16 7 3 1 2 1 1 4 8 8 9 9 10 9 8 7 7 8 8 8 11 13 14 15 15 14 14 14 14 14 13 13 12 12 12 11 10 9 9 9 8 9
2 2 2 2 4 8 13 11 4 6 5 3 2 7 8 6 9 10 9 8 9 7 7 6 6 7 7 8 7 9 12 13 13 13 12 12 13 13 13 11 12 13 12 12 12 12 11 11 11
3 3 2 1 2 8 12 13 10 8 4 0 9 8 5 14 12 10 10 10 9 6 6 6 6 6 7 7 6 8 10 10 10 12 12 10 9 11 13 12 9 13 13 12 12 11 11 11 12
2 1 2 1 2 5 8 11 8 8 6 9 10 12 8 11 10 9 9 5 7 9 8 7 7 7 6 5 7 7 7 8 8 9 8 8 8 7 7 7 8 11 12 12 12 12 12 12 11
3 2 3 3 5 2 4 13 14 13 7 12 20 1 7 6 4 8 8 9 9 5 4 8 7 7 6 5 3 4 4 5 6 9 8 7 7 6 6 6 5 7 8 9 10 11 11 13 10
3 2 3 6 9 4 5 6 18 19 10 13 13 9 10 10 11 16 16 17 16 14 9 7 10 9 9 5 2 1 3 5 4 7 7 5 5 5 6 6 8 8 7 10 10 8 11 13 13
3 2 1 8 15 17 18 16 21 20 15 17 20 19 17 17 18 18 15 14 12 13 11 8 6 10 9 6 5 3 2 1 3 4 3 3 2 3 4 6 7 8 9 10 11 11 11 13 14
3 5 3 9 9 11 24 20 8 15 13 18 21 21 20 23 21 19 21 20 18 15 14 10 2 4 4 5 7 6 8 6 4 3 1 2 1 2 3 3 5 7 7 9 11 12 12 12 12
2 8 11 7 1 5 7 22 16 10 12 18 19 18 20 22 21 20 16 16 17 15 14 16 12 5 7 7 8 4 3 3 7 8 8 10 8 6 4 3 4 6 6 9 8 10 11 12 11
3 5 5 7 2 6 3 7 10 9 12 17 17 15 19 20 18 19 18 16 14 13 17 19 13 7 2 6 7 5 4 4 8 8 7 11 11 11 9 5 8 8 5 6 7 8 10 9 10
3 6 8 6 11 1 3 11 7 10 11 16 15 13 15 16 17 18 18 17 17 17 15 15 16 13 16 8 4 4 6 5 4 3 6 9 10 9 6 6 7 4 2 5 6 7 9 9 8
2 7 7 6 8 17 18 14 10 10 12 14 13 12 14 17 17 17 15 14 14 16 17 16 14 15 13 8 5 2 2 2 3 6 8 12 9 10 6 6 9 5 5 4 6 9 8 10 9
5 10 15 9 4 12 13 13 10 9 11 13 13 14 14 15 14 15 13 13 13 14 14 14 15 12 9 6 4 1 3 4 7 8 13 15 13 13 11 9 8 7 6 7 9 9 11 9 7
13 17 8 6 8 9 13 11 9 7 7 10 8 9 9 9 11 12 13 10 11 11 10 11 11 11 10 7 4 3 4 5 7 7 8 8 10 11 10 10 10 7 7 11 9 8 8 6 6
9 5 9 5 9 10 8 9 5 6 8 5 3 8 8 7 9 9 11 11 11 11 10 10 10 10 10 11 7 7 6 7 7 10 11 10 12 11 9 8 9 10 7 7 10 9 9 7 7
6 4 11 14 8 4 3 5 4 5 8 6 4 7 5 4 7 7 8 9 8 8 7 8 9 10 9 9 8 10 8 10 10 11 11 12 11 9 9 10 8 6 6 6 7 8 11 9 10
2 5 11 11 7 4 3 4 6 1 7 5 4 6 7 7 8 10 11 10 9 8 7 8 8 9 9 9 10 9 10 10 11 11 15 14 12 10 9 8 8 8 7 9 10 10 8 8 8
10 10 11 3 2 3 3 4 5 1 2 2 1 4 6 8 9 10 10 11 13 12 10 9 12 13 13 12 12 11 12 14 13 14 12 11 12 11 9 9 8 8 8 8 7 8 10 8 9
4 4 3 4 4 3 1 5 4 1 3 5 6 5 7 7 9 9 12 13 12 12 14 11 12 12 12 13 13 12 12 13 13 14 13 16 12 11 12 11 8 7 7 7 7 6 7 6 5
5 3 1 1 2 3 1 2 4 5 5 3 3 4 5 8 9 9 12 12 13 14 12 11 11 11 11 12 12 12 13 10 11 12 13 12 12 12 14 13 11 8 6 5 5 4 4 5 2
4 2 3 5 1 3 1 1 3 5 6 6 5 6 9 10 9 12 14 14 14 13 13 13 12 12 12 12 10 11 12 15 14 17 16 12 16 14 16 14 11 9 6 4 4 2 3 4 5
3 6 1 1 2 3 3 3 3 8 6 4 6 7 8 8 8 11 12 10 9 11 10 9 9 10 10 12 12 13 15 16 15 14 15 15 13 13 13 12 10 10 9 9 6 3 3 3 4
3 3 6 3 3 3 4 2 5 7 5 5 7 6 6 8 10 11 11 11 11 11 8 6 8 11 13 13 13 15 16 17 14 11 12 13 12 13 12 12 10 10 10 9 8 8 9 9 6
7 4 3 4 1 2 3 3 5 4 6 6 6 7 9 10 10 11 10 10 12 10 8 10 12 12 12 11 12 14 13 12 11 10 11 11 11 12 13 13 13 12 12 10 10 11 11 14 14
Wind_Direction
121 123 146 219 248 276 301 262 284 268 230 202 146 179 291 32 252 328 56 175 149 157 158 165 162 162 157 152 146 139 140 139 146 147 150 148 147 149 154 162 165 170 169 168 163 160 160 156 156
134 120 126 75 302 341 10 288 261 286 62 33 179 236 243 321 276 342 84 158 157 155 158 164 162 161 158 153 148 140 139 137 138 138 141 142 142 149 158 166 170 172 176 174 168 171 170 171 174
114 256 282 25 209 327 318 252 315 303 304 264 176 307 2 28 68 6 70 146 151 159 160 159 161 161 159 157 153 148 143 141 141 141 139 139 146 156 162 167 173 179 183 184 183 182 184 188 190
170 173 133 271 307 285 257 332 335 307 4 204 134 336 183 9 334 27 139 145 154 159 162 154 160 161 160 160 156 156 156 156 150 149 147 149 157 162 167 176 179 188 191 194 196 197 202 207 198
48 136 286 306 297 272 272 299 326 279 196 187 167 27 271 73 42 109 120 127 149 152 159 160 162 164 164 164 164 164 167 164 162 161 162 165 169 175 178 188 190 197 204 204 205 203 205 209 210
134 306 249 312 299 290 298 333 295 212 164 100 122 212 50 48 53 84 97 102 115 134 165 158 169 171 168 169 167 170 169 171 175 175 180 183 185 188 190 197 202 209 212 217 217 221 220 217 217
252 218 283 294 312 346 358 341 7 336 27 33 102 61 54 60 82 98 108 115 121 131 166 167 188 191 188 176 178 176 173 175 180 183 188 189 193 197 200 205 210 215 220 222 226 227 227 227 228
116 252 217 212 349 11 349 4 10 37 6 339 330 25 61 112 115 116 109 108 117 125 157 182 197 211 219 203 203 196 187 182 184 189 194 197 201 207 212 215 219 221 219 222 222 225 224 221 224
164 245 297 350 326 350 348 7 19 322 279 353 52 33 126 135 133 130 135 143 141 148 172 188 206 210 222 231 231 223 223 209 205 201 205 204 221 215 219 223 229 229 235 236 237 240 241 238 237
209 298 296 303 282 330 55 34 338 340 344 65 51 62 123 134 140 162 165 156 174 173 177 204 212 216 228 249 247 246 247 239 234 231 234 233 241 252 268 279 262 261 263 264 259 254 251 247 253
145 262 12 7 323 323 89 61 32 1 22 337 305 334 124 113 122 43 36 11 353 335 241 215 211 219 221 226 275 290 292 305 310 306 305 306 303 310 292 295 290 272 248 260 246 245 236 241 246
244 300 246 354 8 89 73 83 52 42 27 26 58 104 90 62 39 35 39 23 15 3 331 262 228 214 213 208 216 349 9 24 3 1 3 332 300 307 313 307 307 289 283 279 267 262 256 254 247
206 299 13 68 90 91 82 68 63 46 54 66 74 69 66 56 43 38 44 37 26 7 334 304 245 225 222 193 182 179 144 142 260 261 255 274 287 303 300 305 294 294 291 280 274 268 265 260 251
154 23 55 90 114 95 71 53 62 40 68 69 68 65 60 61 57 50 42 37 35 22 15 20 14 269 226 206 174 187 162 194 225 215 174 107 30 346 303 297 296 281 271 278 284 277 272 265 261
146 120 118 35 334 157 335 42 43 43 72 75 72 69 64 59 61 56 48 47 34 35 34 50 72 58 150 174 173 186 213 187 147 134 128 126 132 140 166 209 236 246 261 270 253 259 267 271 264
184 160 164 37 348 28 146 78 34 39 80 76 72 69 70 62 61 63 49 47 44 39 45 40 44 354 85 181 178 183 141 90 118 146 179 180 180 182 191 237 218 196 243 256 264 269 265 255 259
61 112 97 106 15 224 109 124 50 34 66 69 69 74 79 76 60 58 54 48 48 44 41 50 50 42 40 45 54 115 153 158 159 203 224 225 219 202 218 228 277 258 264 245 260 260 266 271 269
65 121 78 82 46 96 98 103 90 68 67 67 65 58 62 74 65 64 65 59 50 51 53 51 49 47 54 68 65 67 296 248 225 254 259 256 259 267 238 256 274 299 295 286 259 255 256 265 267
106 118 114 118 137 68 93 98 83 80 77 69 57 53 50 45 64 68 64 66 62 58 59 54 55 42 49 62 60 20 288 265 271 267 265 271 272 268 268 264 272 285 258 256 246 250 248 251 235
126 123 110 100 95 105 121 101 85 80 87 85 89 88 80 73 62 62 70 65 71 69 63 67 63 49 38 35 19 336 314 297 303 308 307 281 268 268 256 247 250 239 245 246 243 244 242 221 216
161 170 174 148 118 91 129 118 124 74 102 112 175 91 78 72 76 78 74 67 62 57 46 51 43 42 29 16 10 356 345 334 330 328 323 328 323 318 295 278 273 265 243 233 239 232 231 269 273
172 125 161 144 172 152 283 150 128 111 126 97 99 120 103 108 95 83 80 72 60 52 49 48 47 38 30 16 11 359 343 333 326 320 321 317 315 313 311 309 305 296 282 256 245 232 233 235 260
78 72 149 135 100 158 66 271 108 198 154 102 143 134 122 95 67 59 50 50 52 40 23 27 32 32 15 13 11 355 342 327 324 325 325 317 313 306 304 305 303 292 281 278 279 276 266 256 244
138 92 93 106 143 168 35 295 133 171 347 280 299 105 87 72 53 46 42 42 36 30 26 23 20 24 16 12 6 359 344 334 329 328 324 324 318 312 309 311 310 312 309 302 294 285 279 270 241
181 163 162 171 205 47 350 229 33 290 314 287 325 35 42 35 35 31 30 29 23 23 24 18 17 16 13 8 1 351 341 331 325 323 321 320 321 317 317 320 307 308 309 303 299 288 277 269 247
47 353 24 267 266 93 158 233 77 344 340 284 75 78 51 36 31 25 26 18 14 19 18 13 19 14 10 2 354 350 344 335 320 322 319 311 317 315 320 315 312 300 301 315 326 319 322 311 284
133 77 49 104 46 234 40 182 201 28 32 64 68 52 35 30 24 14 14 11 8 358 353 8 6 6 5 0 350 347 339 334 329 327 326 324 323 323 320 316 313 304 316 335 341 346 356 349 359
34 119 199 82 276 295 178 256 282 346 357 34 40 49 49 29 11 12 6 2 350 344 356 6 6 5 358 355 357 353 347 343 341 333 340 344 338 342 338 347 9 26 3 347 335 339 31 39 44
104 97 68 83 330 304 301 127 354 326 3 66 71 52 22 8 8 8 357 349 343 347 0 9 7 1 0 359 359 355 353 350 4 9 357 353 355 356 8 13 21 21 15 1 358 41 41 44 50
59 50 33 298 164 64 322 92 4 59 61 53 42 15 7 359 356 355 352 350 356 357 5 9 6 7 4 2 360 2 2 2 9 4 10 7 6 10 15 22 24 25 33 28 43 51 58 75 47